Location: Newark
(52.3500°N, 175.9667°E)
Time: 21:13:25
(UTC+00:00)

Transit 4A - Pass Details

Date: 23 April 2021
Orbit: 871 x 974 km, 66.8° (Epoch: 16 May)

Event Time Altitude Azimuth Distance (km) Brightness Sun altitude
Rises 13:26:38 0° 260° (W) 3,603 - -23.1°
Exits shadow 13:29:10 - 269° (W) 2,755 10.2 -23.0°
Reaches altitude 10° 13:29:31 10° 270° (W) 2,644 10.1 -22.9°
Maximum altitude 13:34:54 31° 332° (NNW) 1,561 9.4 -22.6°
Drops below altitude 10° 13:40:11 10° 33° (NNE) 2,587 11.3 -22.3°
Sets 13:42:59 0° 44° (NE) 3,515 12.1 -22.2°
